EW6688 Weather Reports


time (UTC)temp
C
wind
direction
speed
KPH
gust
KPH
rain 1hr
cm
rain 24hr
cm
rain mn
cm
humidity
%
barometer
mb
20260906220002 28 230 0.0 8.0 0.00 0.00 0.00 19 1001.5
20260906214604 28 230 0.0 4.8 0.00 0.00 0.00 19 1001.8
20260906213055 28 230 1.6 6.4 0.00 0.00 0.00 18 1002.1
20260906211558 29 230 0.0 4.8 0.00 0.00 0.00 17 1002.4
20260906204549 30 229 1.6 6.4 0.00 0.00 0.00 16 1002.6
20260906203046 30 234 1.6 9.7 0.00 0.00 0.00 16 1002.7
20260906201545 30 234 1.6 6.4 0.00 0.00 0.00 18 1002.9
20260906200048 28 234 0.0 9.7 0.00 0.00 0.00 19 1003.2
20260906194537 28 234 1.6 8.0 0.00 0.00 0.00 19 1003.3
20260906193032 27 234 1.6 11.3 0.00 0.00 0.00 19 1003.5
20260906191540 27 235 1.6 8.0 0.00 0.00 0.00 20 1003.7
20260906190039 27 236 1.6 6.4 0.00 0.00 0.00 20 1003.9
20260906184525 27 236 1.6 8.0 0.00 0.00 0.00 19 1004.1
20260906183029 28 236 0.0 8.0 0.00 0.00 0.00 19 1004.2
20260906181531 27 234 1.6 11.3 0.00 0.00 0.00 21 1004.4
20260906180016 27 234 0.0 8.0 0.00 0.00 0.00 20 1004.7
20260906174513 27 240 3.2 11.3 0.00 0.00 0.00 20 1004.6
20260906173008 26 251 0.0 14.5 0.00 0.00 0.00 23 1004.8
20260906171504 26 254 0.0 8.0 0.00 0.00 0.00 26 1004.9
20260906164605 25 254 3.2 8.0 0.00 0.00 0.00 30 1004.9
20260906163049 23 254 0.0 6.4 0.00 0.00 0.00 35 1004.9
20260906161544 21 360 0.0 3.2 0.00 0.00 0.00 39 1005.0
20260906160043 21 360 0.0 4.8 0.00 0.00 0.00 42 1005.0
20260906154546 20 254 0.0 3.2 0.00 0.00 0.00 44 1004.9
20260906153036 17 254 0.0 3.2 0.00 0.00 0.00 51 1004.8
20260906151523 15 360 0.0 4.8 0.00 0.00 0.00 57 1004.9
20260906150021 13 360 0.0 1.6 0.00 0.00 0.00 62 1004.9
20260906144516 12 360 0.0 1.6 0.00 0.00 0.00 71 1004.8
20260906143010 12 360 0.0 0.0 0.00 0.00 0.00 73 1004.5
20260906141510 12 360 0.0 0.0 0.00 0.00 0.00 73 1004.5
20260906140010 11 360 0.0 1.6 0.00 0.00 0.00 71 1004.4
20260906134503 11 360 0.0 0.0 0.00 0.00 0.00 71 1004.3
20260906133107 11 360 0.0 0.0 0.00 0.00 0.00 71 1004.1
20260906131600 11 360 0.0 1.6 0.00 0.00 0.00 71 1003.9
20260906130055 11 360 0.0 1.6 0.00 0.00 0.00 72 1003.7
20260906124553 11 360 0.0 3.2 0.00 0.00 0.00 71 1003.3
20260906123049 11 360 0.0 3.2 0.00 0.00 0.00 71 1003.3
20260906121548 11 360 0.0 3.2 0.00 0.00 0.00 71 1003.2
20260906120047 11 360 0.0 3.2 0.00 0.00 0.00 70 1003.1
20260906114549 11 360 0.0 3.2 0.00 0.00 0.00 70 1003.2
20260906113046 11 360 0.0 1.6 0.00 0.00 0.00 69 1003.3
20260906111541 11 360 0.0 3.2 0.00 0.00 0.00 69 1003.4
20260906110040 11 360 0.0 3.2 0.00 0.00 0.00 69 1003.3
20260906104538 11 360 0.0 1.6 0.00 0.00 0.00 69 1003.3
20260906103034 11 360 0.0 1.6 0.00 0.00 0.00 69 1003.2
20260906101533 12 360 0.0 1.6 0.00 0.00 0.00 68 1003.0
20260906100031 12 360 0.0 1.6 0.00 0.00 0.00 68 1003.0
20260906094534 12 360 0.0 1.6 0.00 0.00 0.00 68 1003.0
20260906093027 12 360 0.0 3.2 0.00 0.00 0.00 66 1002.9
20260906091529 12 360 0.0 1.6 0.00 0.00 0.00 67 1003.0
20260906090023 12 360 0.0 1.6 0.00 0.00 0.00 67 1002.9
20260906084526 12 360 0.0 3.2 0.00 0.00 0.00 67 1002.8
20260906083023 12 360 0.0 1.6 0.00 0.00 0.00 67 1002.8
20260906081531 12 360 0.0 1.6 0.00 0.00 0.00 66 1002.9
20260906080014 13 360 0.0 0.0 0.00 0.00 0.00 66 1003.1
20260906074512 13 360 0.0 0.0 0.00 0.00 0.00 66 1002.9
20260906073007 13 360 0.0 1.6 0.00 0.00 0.00 64 1003.0
20260906071505 13 360 0.0 1.6 0.00 0.00 0.00 65 1003.0
20260906070006 13 360 0.0 3.2 0.00 0.00 0.00 65 1002.9
20260906064502 13 360 0.0 1.6 0.00 0.00 0.00 64 1003.0
20260906063056 13 360 0.0 1.6 0.00 0.00 0.00 63 1002.9
20260906061554 14 360 1.6 3.2 0.00 0.00 0.00 62 1002.8
20260906060051 14 360 0.0 3.2 0.00 0.00 0.00 62 1002.8
20260906054554 15 360 0.0 1.6 0.00 0.00 0.00 60 1002.8
20260906053046 15 360 0.0 1.6 0.00 0.00 0.00 61 1002.7
20260906051551 15 360 0.0 1.6 0.00 0.05 0.00 62 1002.8
20260906050108 15 360 0.0 1.6 0.00 0.05 0.00 60 1002.5
20260906044541 15 360 0.0 1.6 0.00 0.05 0.00 60 1002.6
20260906043038 15 360 0.0 1.6 0.00 0.05 0.00 59 1002.3
20260906041534 15 360 0.0 1.6 0.00 0.05 0.00 61 1002.1
20260906040036 15 360 0.0 3.2 0.00 0.05 0.00 59 1001.9
20260906034538 16 360 0.0 3.2 0.00 0.05 0.00 59 1001.8
20260906033028 16 360 0.0 1.6 0.00 0.05 0.00 58 1001.6
20260906031526 16 360 0.0 1.6 0.00 0.05 0.00 58 1001.5
20260906030018 17 360 0.0 1.6 0.00 0.05 0.00 57 1001.3
20260906024515 17 360 0.0 3.2 0.00 0.05 0.00 56 1000.9
20260906023010 17 360 0.0 1.6 0.00 0.05 0.00 56 1000.7
20260906021506 18 360 0.0 1.6 0.00 0.05 0.00 54 1000.5
20260906020001 18 360 0.0 1.6 0.00 0.05 0.00 53 1000.2
20260906014609 19 360 0.0 1.6 0.00 0.05 0.00 52 1000.2
20260906013054 20 360 0.0 0.0 0.00 0.05 0.00 49 1000.2
20260906011547 22 360 0.0 0.0 0.00 0.05 0.00 48 999.9
20260906010043 23 360 0.0 0.0 0.00 0.05 0.00 44 999.8
20260906004542 23 360 0.0 1.6 0.00 0.05 0.00 43 999.9
20260906003136 -17 0.0 0.0 0.00 0.05 0.00 1000.0